Погода в Квашнино

Россия / Еврейская автономная область     47°46′44″N   132°07′46″E
темп.,
°C
ветер,
м/с
пор.,
м/с
влажн.,
%
обл.,
%
осадки,
мм/ч
давл.,
гПа
погр.,
м
7 марта, вс
вс701:00−16з511840 0.0 1030193
04:00−17зюз498523 0.0 1029165
07:00−17юз4689100 0.0 1028128
10:00−15юз4687100 0.0 1027260
13:00−12ююз358790 0.0 1025400
16:00−8юз377893 0.0 1022836
19:00−11з128799 0.0 102221
22:00−13сз238971 0.0 102420
8 марта, пн
пн801:00−14зсз44910 0.0 102467
04:00−15зсз47900 0.0 1026127
07:00−17з46910 0.0 102784
10:00−14з47880 0.0 1028219
13:00−9з47810 0.0 1027395
16:00−6юз46830 0.0 1024431
19:00−9ю34880 0.0 102231
22:00−9ю478918 0.0 1021104
9 марта, вт
вт901:00−8ююз4991100 0.0 1018196
04:00−8ююз498880 0.0 1016160
07:00−8ююз488649 0.0 1013145
10:00−5юз4128558 0.0 1011491
13:00−1з611790 0.0 1009854
16:00−1зсз8127818 0.1 10091215
19:00−3зсз71481100 0.1 10121004
22:00−7сз71875100 0.1 1016761
10 марта, ср
ср1001:00−9зсз511810 0.0 1019240
04:00−11зсз511800 0.0 1022196
07:00−11зсз47840 0.0 102593
10:00−8зсз510810 0.0 1026264
13:00−4зсз58770 0.0 1026321
16:00−2зюз587934 0.0 1024469
19:00−4юз4784100 0.0 1023125
22:00−5юз498698 0.0 1023188
11 марта, чт
чт1101:00−8юз478576 0.0 1023104
04:00−9з458346 0.0 102384
07:00−9з34890 0.0 102646
10:00−6зсз47880 0.0 1027202
13:00−3сз49730 0.0 1028476
16:000сз25730 0.0 1027600
19:00−6зюз11760 0.0 102721
22:00−7з117524 0.0 102821